| time (UTC) | temp C | wind direction | speed KPH | gust KPH | rain 1hr cm | rain 24hr cm | rain mn cm | humidity % | barometer mb |
| 20260507085447 | 13 | 55 | 6.4 | 14.5 | 0.00 | 0.00 | 0.00 | 28 | 1015.6 |
| 20260507084423 | 13 | 42 | 6.4 | 14.5 | 0.00 | 0.00 | 0.00 | 23 | 1015.6 |
| 20260507082300 | 13 | 36 | 4.8 | 12.9 | 0.00 | 0.00 | 0.00 | 22 | 1015.6 |
| 20260507081241 | 12 | 65 | 4.8 | 12.9 | 0.00 | 0.00 | 0.00 | 14 | 1015.6 |
| 20260507080208 | 12 | 91 | 4.8 | 4.8 | 0.00 | 0.00 | 0.00 | 13 | 1015.4 |
| 20260507080008 | 12 | 93 | 4.8 | 14.5 | 0.00 | 0.00 | 0.00 | 13 | 1015.5 |
| 20260507074947 | 12 | 78 | 3.2 | 11.3 | 0.00 | 0.00 | 0.00 | 11 | 1015.4 |
| 20260507072804 | 12 | 62 | 4.8 | 12.9 | 0.00 | 0.00 | 0.00 | 1 | 1015.3 |
| 20260507071758 | 12 | 65 | 3.2 | 12.9 | 0.00 | 0.00 | 0.00 | 1 | 1015.3 |
| 20260507070804 | 11 | 63 | 3.2 | 9.7 | 0.00 | 0.00 | 0.00 | 1 | 1015.2 |
| 20260507065822 | 11 | 104 | 3.2 | 9.7 | 0.00 | 0.00 | 0.00 | 1 | 1015.2 |
| 20260507064840 | 11 | 57 | 1.6 | 9.7 | 0.00 | 0.00 | 0.00 | 1 | 1015.2 |
| 20260507063836 | 11 | 74 | 1.6 | 6.4 | 0.00 | 0.00 | 0.00 | 1 | 1015.1 |
| 20260507062845 | 11 | 70 | 0.0 | 0.0 | 0.00 | 0.00 | 0.00 | 1 | 1015.1 |
| 20260507061831 | 11 | 70 | 0.0 | 0.0 | 0.00 | 0.00 | 0.00 | 1 | 1015.0 |
| 20260507060836 | 10 | 70 | 0.0 | 0.0 | 0.00 | 0.00 | 0.00 | 1 | 1015.0 |
| 20260507054711 | 10 | 69 | 0.0 | 0.0 | 0.00 | 0.00 | 0.00 | 1 | 1014.8 |
| 20260507053647 | 10 | 69 | 0.0 | 0.0 | 0.00 | 0.00 | 0.00 | 1 | 1014.7 |
| 20260507052631 | 10 | 69 | 0.0 | 0.0 | 0.00 | 0.00 | 0.00 | 1 | 1014.7 |
| 20260507051636 | 10 | 69 | 0.0 | 0.0 | 0.00 | 0.00 | 0.00 | 1 | 1014.7 |
| 20260507050606 | 10 | 69 | 0.0 | 0.0 | 0.00 | 0.00 | 0.00 | 1 | 1014.7 |
| 20260507045543 | 10 | 69 | 0.0 | 0.0 | 0.00 | 0.00 | 0.00 | 1 | 1014.6 |
| 20260507044541 | 10 | 69 | 0.0 | 0.0 | 0.00 | 0.00 | 0.00 | 1 | 1014.5 |
| 20260507043529 | 10 | 69 | 0.0 | 0.0 | 0.00 | 0.00 | 0.00 | 1 | 1014.3 |
| 20260507041423 | 10 | 67 | 0.0 | 0.0 | 0.00 | 0.00 | 0.00 | 1 | 1014.3 |
| 20260507035212 | 10 | 66 | 0.0 | 0.0 | 0.00 | 0.00 | 0.00 | 1 | 1014.3 |
| 20260507034233 | 10 | 66 | 0.0 | 0.0 | 0.00 | 0.00 | 0.00 | 1 | 1014.2 |
| 20260507033257 | 10 | 66 | 0.0 | 0.0 | 0.00 | 0.00 | 0.00 | 1 | 1014.2 |
| 20260507032223 | 10 | 66 | 0.0 | 0.0 | 0.00 | 0.00 | 0.00 | 1 | 1014.2 |
| 20260507030122 | 10 | 66 | 0.0 | 0.0 | 0.00 | 0.00 | 0.00 | 1 | 1014.2 |
| 20260507025132 | 10 | 66 | 0.0 | 0.0 | 0.00 | 0.00 | 0.00 | 1 | 1014.1 |
| 20260507024153 | 10 | 66 | 0.0 | 0.0 | 0.00 | 0.00 | 0.00 | 1 | 1014.0 |
| 20260507023202 | 10 | 64 | 0.0 | 1.6 | 0.00 | 0.00 | 0.00 | 1 | 1014.0 |
| 20260507021014 | 10 | 64 | 0.0 | 0.0 | 0.00 | 0.00 | 0.00 | 1 | 1014.0 |
| 20260507015943 | 10 | 64 | 0.0 | 0.0 | 0.00 | 0.00 | 0.00 | 1 | 1014.0 |
| 20260507013745 | 10 | 64 | 1.6 | 6.4 | 0.00 | 0.00 | 0.00 | 1 | 1014.0 |
| 20260507012746 | 10 | 61 | 1.6 | 3.2 | 0.00 | 0.00 | 0.00 | 1 | 1014.0 |
| 20260507011738 | 10 | 59 | 1.6 | 4.8 | 0.00 | 0.00 | 0.00 | 1 | 1014.0 |
| 20260507005635 | 10 | 48 | 1.6 | 8.0 | 0.00 | 0.00 | 0.00 | 1 | 1014.0 |
| 20260507004635 | 10 | 40 | 3.2 | 11.3 | 0.00 | 0.00 | 0.00 | 1 | 1013.9 |
| 20260507002540 | 10 | 52 | 3.2 | 9.7 | 0.00 | 0.00 | 0.00 | 1 | 1013.8 |
| 20260507001524 | 10 | 65 | 3.2 | 8.0 | 0.00 | 0.00 | 0.00 | 1 | 1013.9 |
| 20260507000527 | 10 | 52 | 3.2 | 11.3 | 0.00 | 0.00 | 0.00 | 1 | 1013.9 |
| 20260506235549 | 10 | 36 | 3.2 | 11.3 | 0.00 | 0.00 | 0.00 | 1 | 1014.0 |
| 20260506234541 | 10 | 72 | 1.6 | 8.0 | 0.00 | 0.00 | 0.00 | 1 | 1014.0 |
| 20260506233539 | 10 | 61 | 1.6 | 6.4 | 0.00 | 0.00 | 0.00 | 1 | 1013.9 |
| 20260506232553 | 10 | 65 | 1.6 | 11.3 | 0.00 | 0.00 | 0.00 | 1 | 1013.9 |
| 20260506231555 | 10 | 73 | 3.2 | 11.3 | 0.00 | 0.00 | 0.00 | 1 | 1013.8 |
| 20260506230556 | 11 | 72 | 1.6 | 9.7 | 0.00 | 0.00 | 0.00 | 1 | 1013.9 |
| 20260506225614 | 10 | 77 | 1.6 | 9.7 | 0.00 | 0.00 | 0.00 | 1 | 1013.9 |
| 20260506224620 | 10 | 76 | 1.6 | 9.7 | 0.00 | 0.00 | 0.00 | 1 | 1013.8 |
| 20260506223551 | 10 | 50 | 3.2 | 6.4 | 0.00 | 0.00 | 0.00 | 1 | 1013.8 |
| 20260506222524 | 11 | 73 | 1.6 | 9.7 | 0.00 | 0.00 | 0.00 | 1 | 1013.7 |
| 20260506215212 | 11 | 76 | 3.2 | 12.9 | 0.00 | 0.00 | 0.00 | 1 | 1013.6 |
| 20260506214223 | 11 | 70 | 4.8 | 12.9 | 0.00 | 0.00 | 0.00 | 1 | 1013.6 |
| 20260506213148 | 11 | 73 | 3.2 | 12.9 | 0.00 | 0.00 | 0.00 | 1 | 1013.5 |
| 20260506212208 | 11 | 69 | 4.8 | 14.5 | 0.00 | 0.00 | 0.00 | 1 | 1013.5 |
| 20260506211228 | 11 | 69 | 4.8 | 17.7 | 0.00 | 0.00 | 0.00 | 1 | 1013.5 |
| 20260506210159 | 11 | 36 | 6.4 | 17.7 | 0.00 | 0.00 | 0.00 | 1 | 1013.4 |
| 20260506205209 | 11 | 49 | 6.4 | 16.1 | 0.00 | 0.00 | 0.00 | 1 | 1013.4 |
| 20260506204139 | 11 | 71 | 4.8 | 14.5 | 0.00 | 0.00 | 0.00 | 1 | 1013.4 |
| 20260506203110 | 11 | 63 | 4.8 | 12.9 | 0.00 | 0.00 | 0.00 | 1 | 1013.3 |
| 20260506202043 | 11 | 67 | 3.2 | 14.5 | 0.00 | 0.00 | 0.00 | 1 | 1013.2 |
| 20260506201045 | 11 | 59 | 4.8 | 14.5 | 0.00 | 0.00 | 0.00 | 1 | 1013.2 |
| 20260506200030 | 11 | 33 | 6.4 | 16.1 | 0.00 | 0.00 | 0.00 | 1 | 1013.1 |
| 20260506195016 | 11 | 42 | 4.8 | 16.1 | 0.00 | 0.00 | 0.00 | 1 | 1013.0 |
| 20260506194012 | 11 | 58 | 4.8 | 14.5 | 0.00 | 0.00 | 0.00 | 1 | 1012.9 |
| 20260506193011 | 11 | 75 | 6.4 | 16.1 | 0.00 | 0.00 | 0.00 | 1 | 1012.7 |
| 20260506191942 | 11 | 55 | 6.4 | 16.1 | 0.00 | 0.00 | 0.00 | 1 | 1012.6 |
| 20260506190926 | 11 | 55 | 3.2 | 12.9 | 0.00 | 0.00 | 0.00 | 1 | 1012.5 |
| 20260506184852 | 11 | 58 | 4.8 | 9.7 | 0.00 | 0.00 | 0.00 | 1 | 1012.3 |
| 20260506183844 | 11 | 55 | 3.2 | 11.3 | 0.00 | 0.00 | 0.00 | 1 | 1012.3 |
| 20260506182846 | 11 | 69 | 3.2 | 12.9 | 0.00 | 0.00 | 0.00 | 1 | 1012.3 |
| 20260506181846 | 11 | 59 | 3.2 | 12.9 | 0.00 | 0.00 | 0.00 | 1 | 1012.2 |
| 20260506175726 | 12 | 38 | 4.8 | 12.9 | 0.00 | 0.00 | 0.00 | 1 | 1012.0 |
| 20260506174705 | 12 | 30 | 4.8 | 16.1 | 0.00 | 0.00 | 0.00 | 1 | 1011.9 |
| 20260506173717 | 12 | 73 | 4.8 | 16.1 | 0.00 | 0.00 | 0.00 | 1 | 1011.8 |
| 20260506172719 | 12 | 48 | 3.2 | 14.5 | 0.00 | 0.00 | 0.00 | 1 | 1011.8 |
| 20260506171723 | 12 | 71 | 4.8 | 14.5 | 0.00 | 0.00 | 0.00 | 1 | 1011.8 |
| 20260506165543 | 12 | 76 | 4.8 | 16.1 | 0.00 | 0.00 | 0.00 | 1 | 1011.8 |
| 20260506164604 | 12 | 65 | 6.4 | 16.1 | 0.00 | 0.00 | 0.00 | 1 | 1011.8 |
| 20260506163534 | 12 | 51 | 4.8 | 11.3 | 0.00 | 0.00 | 0.00 | 1 | 1011.8 |
| 20260506162547 | 12 | 44 | 3.2 | 11.3 | 0.00 | 0.00 | 0.00 | 1 | 1011.8 |
| 20260506161608 | 12 | 46 | 4.8 | 11.3 | 0.00 | 0.00 | 0.00 | 1 | 1011.8 |
| 20260506160630 | 12 | 38 | 4.8 | 12.9 | 0.00 | 0.00 | 0.00 | 1 | 1011.7 |
| 20260506155609 | 12 | 51 | 4.8 | 12.9 | 0.00 | 0.00 | 0.00 | 1 | 1011.8 |
| 20260506154552 | 12 | 53 | 4.8 | 12.9 | 0.00 | 0.00 | 0.00 | 1 | 1011.7 |
| 20260506153519 | 12 | 35 | 6.4 | 12.9 | 0.00 | 0.00 | 0.00 | 1 | 1011.8 |
| 20260506152538 | 12 | 34 | 6.4 | 12.9 | 0.00 | 0.00 | 0.00 | 1 | 1011.7 |
| 20260506151511 | 11 | 53 | 4.8 | 11.3 | 0.00 | 0.00 | 0.00 | 1 | 1011.6 |
| 20260506150506 | 11 | 42 | 6.4 | 14.5 | 0.00 | 0.00 | 0.00 | 1 | 1011.5 |
| 20260506144307 | 12 | 44 | 6.4 | 16.1 | 0.00 | 0.00 | 0.00 | 1 | 1011.6 |
| 20260506143320 | 12 | 18 | 8.0 | 17.7 | 0.00 | 0.00 | 0.00 | 1 | 1011.6 |
| 20260506141111 | 12 | 62 | 9.7 | 22.5 | 0.00 | 0.00 | 0.00 | 1 | 1011.5 |
| 20260506140126 | 13 | 58 | 9.7 | 22.5 | 0.00 | 0.00 | 0.00 | 1 | 1011.5 |
| 20260506135120 | 13 | 26 | 6.4 | 16.1 | 0.00 | 0.00 | 0.00 | 8 | 1011.4 |
| 20260506134133 | 14 | 78 | 4.8 | 16.1 | 0.00 | 0.00 | 0.00 | 28 | 1011.5 |
| 20260506133124 | 14 | 55 | 3.2 | 16.1 | 0.00 | 0.00 | 0.00 | 39 | 1011.4 |
| 20260506132117 | 15 | 50 | 6.4 | 16.1 | 0.00 | 0.00 | 0.00 | 42 | 1011.4 |
| 20260506131118 | 15 | 31 | 6.4 | 17.7 | 0.00 | 0.00 | 0.00 | 46 | 1011.4 |
| 20260506124935 | 15 | 71 | 8.0 | 16.1 | 0.00 | 0.00 | 0.00 | 46 | 1011.4 |
| 20260506123901 | 15 | 16 | 8.0 | 16.1 | 0.00 | 0.00 | 0.00 | 46 | 1011.4 |
| 20260506122910 | 15 | 348 | 6.4 | 14.5 | 0.00 | 0.00 | 0.00 | 44 | 1011.3 |
| 20260506121933 | 15 | 16 | 6.4 | 14.5 | 0.00 | 0.00 | 0.00 | 45 | 1011.4 |
| 20260506120915 | 14 | 337 | 8.0 | 17.7 | 0.00 | 0.00 | 0.00 | 38 | 1011.3 |
| 20260506115859 | 14 | 10 | 6.4 | 19.3 | 0.00 | 0.00 | 0.00 | 37 | 1011.3 |
| 20260506114907 | 13 | 28 | 6.4 | 19.3 | 0.00 | 0.00 | 0.00 | 34 | 1011.4 |
| 20260506113924 | 13 | 20 | 8.0 | 17.7 | 0.00 | 0.00 | 0.00 | 32 | 1011.4 |
| 20260506111832 | 13 | 14 | 8.0 | 17.7 | 0.00 | 0.00 | 0.00 | 32 | 1011.4 |
| 20260506110834 | 13 | 9 | 8.0 | 17.7 | 0.00 | 0.00 | 0.00 | 37 | 1011.3 |
| 20260506105819 | 14 | 12 | 9.7 | 22.5 | 0.00 | 0.00 | 0.00 | 38 | 1011.3 |
| 20260506104815 | 14 | 9 | 11.3 | 22.5 | 0.00 | 0.00 | 0.00 | 36 | 1011.3 |
| 20260506103819 | 15 | 21 | 9.7 | 20.9 | 0.00 | 0.00 | 0.00 | 34 | 1011.4 |
| 20260506101641 | 13 | 5 | 11.3 | 22.5 | 0.00 | 0.00 | 0.00 | 29 | 1011.3 |
| 20260506100642 | 13 | 17 | 9.7 | 20.9 | 0.00 | 0.00 | 0.00 | 25 | 1011.4 |
| 20260506095618 | 12 | 341 | 9.7 | 19.3 | 0.00 | 0.00 | 0.00 | 17 | 1011.3 |
| 20260506093413 | 12 | 30 | 12.9 | 22.5 | 0.00 | 0.00 | 0.00 | 11 | 1011.3 |
| 20260506092349 | 12 | 34 | 11.3 | 22.5 | 0.00 | 0.00 | 0.00 | 6 | 1011.3 |
| 20260506091330 | 12 | 14 | 9.7 | 22.5 | 0.00 | 0.00 | 0.00 | 1 | 1011.2 |
| 20260506090352 | 12 | 340 | 9.7 | 20.9 | 0.00 | 0.00 | 0.00 | 1 | 1011.2 |